EHI
0 0 0 0 0 0 0 0 0 0 0 0 0 0 0 0 0 0 0 0 0 0 0 0 0 0 0 0 0 0 0 0 0 0 0 0 0 0 0 0 0 0 0 0
0 0 0 0 0 0 0 0 0 0 0 0 0 0 0 0 0 0 0 0 0 0 0 0 0 0 0 0 0 0 0 0 0 0 0 0 0 0 0 0 0 0 0 0
0 0 0 0 0 0 0 0 0 0 0 0 0 0 0 0 0 0 0 0 0 0 0 0 0 0 0 0 0 0 0 0 0 0 0 0 0 0 0 0 0 0 0 0
0 0 0 0 0 0 0 0 0 0 0 0 0 0 0 0 0 0 0 0 0 0 0 0 0 0 0 0 0 0 0 0 0 0 0 0 0 0 0 0 0 0 0 0
0 0 0 0 0 0 0 0 0 0 0 0 0 0 0 0 0 0 0 0 0 0 0 0 0 0 0 0 0 0 0 0 0 0 0 0 0 0 0 0 0 0 0 0
0 0 0 0 0 0 0 0 0 0 0 0 0 0 0 0 0 0 0 0 0 0 0 0 0 0 0 0 0 0 0 0 0 0 0 0 0 0 0 0 0 0 0 0
0 0 0 0 0 0 0 0 0 0 0 0 0 0 0 0 0 0 0 0 0 0 0 0 0 0 0 0 0 0 0 0 0 0 0 0 0 0 0 0 0 0 0 0
0 0 0 0 0 0 0 0 0 0 0 0 0 0 0 0 0 0 0 0 0 0 0 0 0 0 0 0 0 0 0 0 0 0 0 0 0 0 0 0 0 0 0 0
0 0 0 0 0 0 0 0 0 0 0 0 0 0 0 0 0 0 0 0 0 0 0 0 0 0 0 0 0 0 0 0 0 0 0 0 0 0 0 0 0 0 0 0
0 0 0 0 0 0 0 0 0 0 0 0 0 0 0 0 0 0 0 0 0 0 0 0 0 0 0 0 0 0 0 0 0 0 0 0 0 0 0 0 0 0 0 0
0 0 0 0 0 0 0 0 0 0 0 0 0 0 0 0 0 0 0 0 0 0 0 0 0 0 0 0 0 0 0 0 0 0 0 0 0 0 0 0 0 0 0 0
0 0 0 0 0 0 0 0 0 0 0 0 0 0 0 0 0 0 0 0 0 0 0 0 0 0 0 0 0 0 0 0 0 0 0 0 0 0 0 0 0 0 0 0
0 0 0 0 0 0 0 0 0 0 0 0 0 0 0 0 0 0 0 0 0 0 0 0 0 0 0 0 0 0 0 0 0 0 0 0 0 0 0 0 0 0 0 0
0 0 0 0 0 0 0 0 0 0 0 0 0 0 0 0 0 0 0 0 0 0 0 0 0 0 0 0 0 0 0 0 0 0 0 0 0 0 0 0 0 0 0 0
0 0 0 0 0 0 0 0 0 0 0 0 0 0 0 0 0 0 0 0 0 0 0 0 0 0 0 0 0 0 0 0 0 0 0 0 0 0 0 0 0 0 0 0
0 0 0 0 0 0 0 0 0 0 0 0 0 0 0 0 0 0 0 0 0 0 0 0 0 0 0 0 0 0 0 0 0 0 0 0 0 0 0 0 0 0 0 0
0 0 0 0 0 0 0 0 0 0 0 0 0 0 0 0 0 0 0 0 0 0 0 0 0 0 0 0 0 0 0 0 0 0 0 0 0 0 0 0 0 0 0 0
0 0 0 0 0 0 0 0 0 0 0 0 0 0 0 0 0 0 0 0 0 0 0 0 0 0 0 0 0 0 0 0 0 0 0 0 0 0 0 0 0 0 0 0
0 0 0 0 0 0 0 0 0 0 0 0 0 0 0 0 0 0 0 0 0 0 0 0 0 0 0 0 0 0 0 0 0 0 0 0 0 0 0 0 0 0 0 0
0 0 0 0 0 0 0 0 0 0 0 0 0 0 0 0 0 0 0 0 0 0 0 0 0 0 0 0 0 0 0 0 0 0 0 0 0 0 0 0 0 0 0 0
0 0 0 0 0 0 0 0 0 0 0 0 0 0 0 0 0 0 0 0 0 0 0 0 0 0 0 0 0 0 0 0 0 0 0 0 0 0 0 0 0 0 0 0
0 0 0 0 0 0 0 0 0 0 0 0 0 0 0 0 0 0 0 0 0 0 0 0 0 0 0 0 0 0 0 0 0 0 0 0 0 0 0 0 0 0 0 0
0 0 0 0 0 0 0 0 0 0 0 0 0 0 0 0 0 0 0 0 0 0 0 0 0 0 0 0 0 0 0 0 0 0 0 0 0 0 0 0 0 0 0 0
0 0 0 0 0 0 0 0 0 0 0 0 0 0 0 0 0 0 0 0 0 0 0 0 0 0 0 0 0 0 0 0 0 0 0 0 0 0 0 0 0 0 0 0
0 0 0 0 0 0 0 0 0 0 0 0 0 0 0 0 0 0 0 0 0 0 0 0 0 0 0 0 0 0 0 0 0 0 0 0 0 0 0 0 0 0 0 0
0 0 0 0 0 0 0 0 0 0 0 0 0 0 0 0 0 0 0 0 0 0 0 0 0 0 0 0 0 0 0 0 0 0 0 0 0 0 0 0 0 0 0 0
0 0 0 0 0 0 0 0 0 0 0 0 0 0 0 0 0 0 0 0 0 0 0 0 0 0 0 0 0 0 0 0 0 0 0 0 0 0 0 0 0 0 0 0
Wind_Speed
7 7 6 5 5 3 3 4 5 6 5 5 6 7 8 9 10 10 11 12 12 11 10 10 10 9 8 8 7 6 6 4 4 4 3 3 3 2 1 1 1 1 1 1
6 6 5 6 4 4 4 4 5 6 5 4 6 7 8 9 10 11 11 12 12 12 12 11 11 10 9 8 7 6 5 5 5 5 4 3 3 3 2 1 1 1 1 1
4 4 5 4 2 1 1 2 3 4 4 6 7 9 9 9 9 10 10 11 12 12 11 11 11 10 9 9 7 6 5 5 4 5 4 4 3 3 2 2 1 1 1 1
4 4 4 1 2 3 2 2 3 3 5 6 7 8 7 6 8 9 11 12 11 11 11 10 10 10 9 9 7 6 5 5 5 5 4 4 3 3 3 2 2 1 1 2
3 4 4 1 2 3 1 2 3 4 6 7 8 7 4 7 9 9 10 10 10 10 10 10 10 10 10 9 7 6 6 5 5 5 4 4 4 4 3 2 2 2 1 1
3 4 4 1 3 3 1 1 4 5 6 8 8 6 6 9 11 10 10 9 10 10 10 9 9 9 8 8 7 7 7 6 5 4 4 4 4 4 3 2 2 2 1 1
4 4 3 2 3 3 1 3 4 5 5 6 6 5 8 10 10 10 10 10 11 10 9 9 9 9 8 8 7 7 7 6 5 4 4 4 4 3 3 2 2 2 1 1
2 4 3 3 3 2 2 3 4 5 5 6 7 8 9 10 10 11 11 11 11 10 9 8 8 8 8 8 8 7 7 6 5 5 4 3 3 3 3 2 2 1 1 1
2 3 1 1 1 0 1 3 4 5 6 6 8 9 10 10 10 10 10 10 10 10 10 8 8 8 8 9 8 7 7 6 6 5 4 3 3 3 2 2 1 1 1 1
3 2 1 1 1 2 3 3 4 5 6 6 8 9 10 9 10 10 9 9 9 10 10 9 9 8 8 8 8 7 6 6 5 5 4 3 2 2 2 1 1 1 1 1
4 3 2 1 2 3 3 4 5 5 5 6 8 9 9 9 9 9 9 9 9 9 9 10 10 9 9 8 8 8 6 5 5 4 3 3 3 2 2 2 2 1 1 2
3 1 1 3 3 3 4 4 5 6 7 7 7 8 8 8 8 8 9 9 9 9 10 10 9 10 9 8 8 7 6 5 4 4 3 3 2 3 4 4 5 4 4 3
2 2 2 3 3 3 3 4 5 5 6 7 7 7 8 8 8 8 9 9 10 10 10 9 9 9 9 8 8 7 6 6 4 4 3 3 3 2 3 4 4 4 4 4
1 1 3 3 3 4 4 4 5 6 6 6 6 7 7 8 8 9 9 9 10 10 9 9 9 9 9 8 7 7 6 6 6 4 4 3 3 3 2 2 3 3 4 5
1 2 3 4 3 3 4 4 6 6 6 7 6 7 8 9 9 9 9 9 9 9 9 9 9 9 8 8 7 7 6 5 4 4 3 3 3 3 2 2 2 2 3 3
2 3 3 3 4 4 4 5 6 7 7 7 7 8 8 8 9 8 8 8 8 9 9 9 9 9 8 8 8 6 5 8 7 4 3 3 2 2 2 2 2 2 2 3
2 3 3 4 5 5 5 5 5 6 6 7 8 8 8 8 9 8 8 8 8 8 8 9 9 9 8 7 7 5 5 6 8 5 3 3 2 2 2 2 2 2 2 3
3 3 3 4 4 5 6 5 5 6 6 7 7 7 8 8 9 9 9 9 9 8 8 8 9 9 8 7 6 5 5 4 4 4 3 3 3 2 2 2 2 2 2 2
2 3 3 4 4 4 4 5 5 5 6 6 7 7 7 8 8 8 8 8 9 9 9 9 14 10 8 8 8 5 5 5 4 4 3 4 3 3 2 2 2 2 2 2
2 3 3 4 3 3 4 5 5 5 5 5 6 7 7 7 7 8 8 7 6 6 9 10 10 8 7 7 9 4 4 4 4 4 3 3 2 2 2 2 2 2 2 2
3 3 4 4 4 4 4 4 4 5 5 5 6 7 7 7 7 7 7 7 7 8 9 12 8 7 7 8 9 4 4 4 4 4 3 3 3 2 2 2 2 2 2 2
3 3 4 4 4 4 4 3 4 5 5 5 6 6 7 7 7 7 6 5 7 12 9 6 6 9 11 11 5 4 4 4 4 3 3 3 2 2 2 2 2 2 2 1
3 3 3 4 4 4 4 4 4 4 5 5 6 6 6 6 5 6 7 6 6 12 9 6 10 14 15 7 4 4 4 4 4 4 3 3 3 3 3 2 2 2 2 2
3 3 3 3 3 4 5 5 4 4 4 5 5 5 5 5 5 4 5 10 13 13 7 10 15 15 13 5 4 4 4 4 4 4 3 3 3 2 2 3 2 2 2 2
3 3 3 3 3 3 4 5 4 4 4 4 5 5 4 3 4 5 5 6 11 12 7 10 14 14 8 5 4 4 4 4 4 3 3 3 3 2 2 2 3 3 2 2
2 2 3 3 3 3 3 3 3 4 4 5 5 4 4 4 4 5 5 6 8 10 7 5 6 8 5 5 5 4 4 4 5 4 4 3 3 3 3 3 3 3 2 2
3 2 2 2 2 2 3 3 4 4 4 5 6 5 5 4 4 5 5 5 5 5 5 5 5 5 5 5 5 4 4 4 3 3 3 3 3 3 3 3 3 3 3 2
Wind_Direction
283 293 298 296 302 304 274 268 270 294 307 338 354 351 349 349 348 352 354 353 351 347 342 340 339 337 334 331 332 333 333 335 330 328 334 332 327 319 319 313 303 281 259 254
280 268 272 280 294 295 288 287 285 299 311 357 349 350 350 349 349 350 349 347 345 341 341 338 335 332 331 327 326 327 326 325 327 328 327 327 320 319 322 315 302 295 263 254
280 302 304 278 319 296 291 329 316 305 322 345 345 346 343 339 346 346 345 343 339 336 333 330 329 326 325 322 321 322 321 322 325 326 325 325 324 327 326 318 311 299 289 278
284 307 261 207 54 46 46 10 11 354 347 347 339 327 326 348 352 346 341 336 332 330 328 327 327 326 322 321 320 323 325 325 324 325 323 323 321 319 319 316 299 280 278 272
283 279 267 144 38 18 357 332 20 9 349 342 337 322 336 7 355 338 330 328 325 324 322 324 325 325 324 325 327 327 324 322 321 320 318 318 315 311 310 309 302 284 266 259
273 276 274 1 10 345 341 278 17 11 348 339 341 334 319 342 338 331 329 328 325 323 322 323 324 325 325 326 328 325 322 318 314 313 310 306 305 308 312 304 286 283 282 274
258 260 265 355 334 343 338 284 343 350 339 333 325 298 304 320 324 325 326 326 327 325 323 323 328 330 328 329 327 321 321 321 313 311 307 305 306 309 307 301 292 280 277 289
248 253 255 13 28 47 257 317 337 338 335 324 313 310 314 317 321 325 327 329 331 328 327 330 334 333 329 327 324 324 323 322 321 318 308 309 305 305 305 302 297 288 283 301
233 238 246 90 95 349 359 336 337 331 323 318 313 312 315 317 320 322 325 327 329 329 326 330 334 333 326 323 325 324 322 322 322 321 319 317 308 302 298 288 281 288 288 283
276 262 279 307 37 17 359 334 323 320 320 321 312 312 314 317 319 321 323 325 327 329 329 329 331 328 324 323 325 322 320 320 322 319 319 321 314 305 297 286 282 290 293 287
259 280 316 290 2 350 337 330 328 328 323 318 314 312 314 315 316 318 320 321 323 324 323 324 327 326 326 328 327 324 319 318 321 318 316 317 319 309 305 291 277 280 268 263
248 274 267 286 315 329 325 325 324 320 316 318 315 310 312 311 311 314 316 319 321 321 321 321 323 324 325 325 326 323 320 321 320 317 318 319 321 329 330 327 329 325 319 309
246 316 293 284 305 330 322 314 314 311 308 309 311 310 311 310 312 315 316 319 319 317 316 317 320 321 324 326 325 323 320 319 316 317 317 316 318 322 331 340 342 341 339 335
251 297 288 291 301 313 312 311 310 308 308 311 314 316 315 313 313 316 316 316 315 316 316 316 318 319 322 324 324 323 320 316 316 313 315 316 318 318 321 329 336 343 346 348
264 268 270 293 304 311 317 319 317 313 317 318 318 317 316 316 313 312 312 314 316 317 318 320 320 319 323 325 326 324 320 316 312 308 310 315 318 319 323 326 332 337 344 346
300 290 279 286 293 302 311 313 310 309 314 314 317 316 315 313 310 310 313 318 320 320 320 320 319 320 325 328 324 320 316 317 318 313 310 312 315 315 319 325 330 335 335 331
283 287 291 296 298 301 301 300 300 302 308 311 312 314 316 317 317 318 320 321 317 315 317 318 319 324 326 327 324 317 315 316 317 312 311 313 316 316 318 320 320 323 325 329
253 268 275 278 286 295 299 303 303 303 304 305 310 313 316 318 317 318 319 321 322 322 324 324 325 326 326 325 324 320 317 314 317 314 315 321 325 325 325 320 320 321 332 343
288 287 286 286 285 285 290 295 300 302 304 308 311 310 310 310 312 315 320 324 326 327 328 330 331 333 327 326 327 321 323 323 323 321 320 322 326 329 327 326 326 329 335 344
293 294 293 294 296 293 292 295 300 303 305 310 310 311 313 316 319 321 322 319 320 318 320 328 332 330 328 325 326 325 328 329 327 325 328 329 330 330 330 330 331 333 340 347
293 293 294 295 296 294 292 295 299 302 307 311 310 309 311 315 319 320 320 318 322 326 328 332 335 331 331 332 334 338 338 337 334 331 331 330 328 329 331 334 333 333 339 348
289 290 291 293 295 298 300 300 299 301 307 309 309 311 315 318 321 318 311 308 318 327 331 327 328 332 335 336 339 342 341 339 334 334 336 334 331 328 327 328 329 331 336 341
291 292 293 293 292 295 303 301 296 297 300 304 307 310 310 309 312 314 314 320 323 327 330 327 331 334 337 341 342 342 340 338 335 337 336 335 335 333 332 331 330 332 334 332
296 297 296 298 301 302 302 303 302 299 294 295 298 300 302 307 307 301 300 317 327 328 330 330 336 338 342 346 342 341 340 338 338 340 342 340 338 338 337 335 332 330 329 329
298 296 297 301 300 294 297 305 308 305 304 302 303 304 301 296 298 307 312 316 322 327 327 331 336 339 343 337 338 337 335 335 336 339 344 342 337 333 331 332 332 329 328 326
298 293 287 283 282 290 300 306 307 309 313 313 314 314 312 307 303 306 310 314 318 323 327 325 327 331 333 333 334 335 335 334 339 345 345 342 341 337 331 330 328 324 322 321
304 303 304 307 308 310 309 307 307 311 314 312 313 317 318 318 317 317 318 318 319 321 321 323 325 327 329 330 331 332 333 334 335 336 337 337 336 333 330 327 323 321 320 318